Fremont, MI

2:12 AM EDT on October 21, 2019 (GMT -0400)
Fremont

Weather History for KFFX - August, 2019

Change the Weather History Date:

Wednesday, August 28, 2019

  Actual Average (KMKG) Record (KMKG)
Temperature  
Mean Temperature 62 °F -  
Max Temperature 70 °F 78 °F 91 °F (1953)
Min Temperature 55 °F 59 °F 40 °F (1941)
Degree Days  
Heating Degree Days 2    
Growing Degree Days 12 (Base 50)    
Moisture  
Dew Point 47 °F    
Average Humidity 57    
Maximum Humidity 87    
Minimum Humidity 39    
Precipitation  
Precipitation 0.00 in - - ()
Sea Level Pressure  
Sea Level Pressure 29.85 in    
Wind  
Wind Speed 7 mph ()    
Max Wind Speed 18 mph    
Max Gust Speed 29 mph    
Visibility 10.0 miles    
Events      
Averages and records for this station are not official NWS values.
T = Trace of Precipitation, MM = Missing Value Source: Averaged Metar Reports

Daily Weather History Graph

Daily Weather History Graph

Search for Another Location

Airport or City:

Astronomy

Aug. 28, 2019 Rise Set
Actual Time 7:03 AM EDT 8:26 PM EDT
Civil Twilight 6:33 AM EDT 8:56 PM EDT
Nautical Twilight 5:57 AM EDT 9:31 PM EDT
Astronomical Twilight 5:19 AM EDT 10:09 PM EDT
Moon 4:29 AM EDT (8/28) 7:42 PM EDT (8/28)
Length of Visible Light 14h 22m
Length of Day
13h 23m
Waning Crescent, 5% of the Moon is Illuminated
Aug 28
Waning Crescent
Aug 30
New
Sep 5
First Quarter
Sep 14
Full
Sep 21
Last Quarter

Hourly Weather History & Observations

Time (EDT) Temp. Dew Point Humidity Pressure Visibility Wind Dir Wind Speed Gust Speed Precip Events Conditions
12:15 AM 65.5 °F 46.8 °F 51% 29.83 in 10.0 mi West 8.1 mph - N/A   Clear
12:35 AM 64.9 °F 45.1 °F 49% 29.83 in 10.0 mi West 6.9 mph - N/A   Scattered Clouds
12:55 AM 63.9 °F 45.5 °F 51% 29.83 in 10.0 mi West 4.6 mph - N/A   Scattered Clouds
1:00 AM 63.5 °F 45.5 °F 52% 29.83 in 10.0 mi WSW 5.8 mph - N/A   Clear
1:18 AM 63.0 °F 45.5 °F 53% 29.83 in 10.0 mi WSW 3.5 mph - N/A   Scattered Clouds
1:36 AM 63.1 °F 44.8 °F 51% 29.83 in 10.0 mi WSW 3.5 mph - N/A   Scattered Clouds
1:55 AM 61.9 °F 45.1 °F 54% 29.83 in 10.0 mi WSW 3.5 mph - N/A   Clear
2:15 AM 61.0 °F 45.5 °F 57% 29.82 in 10.0 mi SW 3.5 mph - N/A   Clear
2:39 AM 59.0 °F 46.4 °F 63% 29.82 in 10.0 mi SW 3.5 mph - N/A   Clear
2:57 AM 58.3 °F 46.8 °F 66% 29.82 in 10.0 mi SSW 4.6 mph - N/A   Clear
3:15 AM 56.7 °F 46.8 °F 69% 29.82 in 10.0 mi SSW 3.5 mph - N/A   Clear
3:16 AM 56.7 °F 46.8 °F 69% 29.81 in 10.0 mi SSW 4.6 mph - N/A   Clear
3:35 AM 57.4 °F 46.8 °F 68% 29.81 in 10.0 mi SSW 3.5 mph - N/A   Clear
3:55 AM 58.1 °F 46.4 °F 65% 29.80 in 10.0 mi South 3.5 mph - N/A   Clear
4:18 AM 56.7 °F 46.6 °F 69% 29.80 in 10.0 mi Calm Calm - N/A   Clear
4:36 AM 56.5 °F 46.8 °F 70% 29.80 in 10.0 mi Calm Calm - N/A   Clear
4:55 AM 55.4 °F 49.8 °F 81% 29.79 in 10.0 mi SSW 4.6 mph - N/A   Clear
5:15 AM 57.0 °F 48.4 °F 73% 29.79 in 10.0 mi SSW 3.5 mph - N/A   Clear
5:39 AM 55.8 °F 50.2 °F 82% 29.79 in 10.0 mi SW 5.8 mph - N/A   Clear
5:57 AM 57.6 °F 51.8 °F 81% 29.80 in 10.0 mi WSW 4.6 mph - N/A   Clear
6:15 AM 57.9 °F 50.2 °F 75% 29.80 in 10.0 mi WSW 4.6 mph - N/A   Clear
6:16 AM 58.1 °F 50.0 °F 74% 29.80 in 10.0 mi WSW 3.5 mph - N/A   Clear
6:35 AM 57.7 °F 49.8 °F 75% 29.80 in 10.0 mi WSW 4.6 mph - N/A   Clear
6:55 AM 57.2 °F 50.7 °F 79% 29.80 in 10.0 mi WSW 3.5 mph - N/A   Clear
7:18 AM 58.1 °F 49.3 °F 72% 29.81 in 10.0 mi WSW 4.6 mph - N/A   Clear
7:35 AM 57.9 °F 50.4 °F 76% 29.81 in 10.0 mi WSW 5.8 mph - N/A   Clear
7:55 AM 59.9 °F 49.8 °F 69% 29.81 in 10.0 mi WSW 3.5 mph - N/A   Clear
8:15 AM 61.0 °F 50.2 °F 68% 29.82 in 10.0 mi WSW 5.8 mph - N/A   Clear
8:57 AM 64.2 °F 50.2 °F 60% 29.82 in 10.0 mi West 6.9 mph - N/A   Clear
9:15 AM 65.3 °F 50.2 °F 58% 29.82 in 10.0 mi West 12.7 mph 18.4 mph N/A   Scattered Clouds
9:16 AM 65.3 °F 50.0 °F 58% 29.82 in 10.0 mi West 13.8 mph 19.6 mph N/A   Scattered Clouds
9:35 AM 66.0 °F 48.9 °F 54% 29.83 in 10.0 mi West 10.4 mph 21.9 mph N/A   Mostly Cloudy
9:36 AM 66.0 °F 49.1 °F 54% 29.83 in 10.0 mi West 10.4 mph 21.9 mph N/A   Mostly Cloudy
9:55 AM 66.6 °F 47.8 °F 51% 29.83 in 10.0 mi West 13.8 mph 26.5 mph N/A   Mostly Cloudy
10:00 AM 66.9 °F 47.5 °F 50% 29.83 in 10.0 mi West 15.0 mph 27.6 mph N/A   Mostly Cloudy
10:17 AM 66.0 °F 46.9 °F 50% 29.83 in 10.0 mi West 16.1 mph 27.6 mph N/A   Mostly Cloudy
10:36 AM 66.2 °F 45.3 °F 47% 29.83 in 10.0 mi West 13.8 mph 25.3 mph N/A   Scattered Clouds
10:55 AM 67.6 °F 46.2 °F 46% 29.84 in 10.0 mi West 11.5 mph 24.2 mph N/A   Clear
11:15 AM 68.0 °F 44.2 °F 42% 29.84 in 10.0 mi West 17.3 mph 21.9 mph N/A   Scattered Clouds
11:16 AM 68.0 °F 44.2 °F 42% 29.84 in 10.0 mi West 16.1 mph 21.9 mph N/A   Scattered Clouds
11:39 AM 68.7 °F 44.1 °F 41% 29.84 in 10.0 mi West 18.4 mph 24.2 mph N/A   Scattered Clouds
11:57 AM 68.2 °F 43.5 °F 41% 29.84 in 10.0 mi West 18.4 mph 25.3 mph N/A   Mostly Cloudy
12:15 PM 67.6 °F 45.1 °F 44% 29.85 in 10.0 mi West 16.1 mph 23.0 mph N/A   Mostly Cloudy
12:35 PM 68.2 °F 44.6 °F 43% 29.84 in 10.0 mi WSW 12.7 mph 23.0 mph N/A   Overcast
12:55 PM 69.4 °F 44.1 °F 40% 29.85 in 10.0 mi WSW 15.0 mph 23.0 mph N/A   Overcast
1:00 PM 70.0 °F 43.9 °F 39% 29.85 in 10.0 mi WSW 16.1 mph 23.0 mph N/A   Overcast
1:18 PM 66.6 °F 42.6 °F 42% 29.85 in 10.0 mi West 12.7 mph 28.8 mph N/A   Overcast
1:36 PM 66.2 °F 40.6 °F 39% 29.85 in 10.0 mi West 17.3 mph 26.5 mph N/A   Overcast
1:55 PM 66.2 °F 42.8 °F 43% 29.85 in 10.0 mi West 16.1 mph 27.6 mph N/A   Overcast
1:56 PM 66.2 °F 43.0 °F 43% 29.85 in 10.0 mi West 16.1 mph 24.2 mph N/A   Overcast
2:15 PM 67.8 °F 41.9 °F 39% 29.86 in 10.0 mi West 15.0 mph 24.2 mph N/A   Mostly Cloudy
2:39 PM 66.2 °F 41.7 °F 41% 29.86 in 10.0 mi West 16.1 mph 27.6 mph N/A   Overcast
2:57 PM 65.8 °F 42.3 °F 42% 29.87 in 10.0 mi West 15.0 mph 25.3 mph N/A   Overcast
3:15 PM 65.3 °F 42.6 °F 44% 29.87 in 10.0 mi West 15.0 mph 23.0 mph N/A   Overcast
3:35 PM 67.1 °F 41.9 °F 40% 29.87 in 10.0 mi West 11.5 mph 23.0 mph N/A   Overcast
3:55 PM 66.0 °F 41.5 °F 41% 29.88 in 10.0 mi West 15.0 mph 19.6 mph N/A   Overcast
4:00 PM 65.7 °F 41.2 °F 41% 29.88 in 10.0 mi West 15.0 mph 20.7 mph N/A   Overcast
4:18 PM 66.6 °F 41.9 °F 41% 29.88 in 10.0 mi West 10.4 mph 17.3 mph N/A   Overcast
4:35 PM 65.8 °F 40.3 °F 39% 29.88 in 10.0 mi West 11.5 mph 21.9 mph N/A   Overcast
4:55 PM 66.4 °F 41.4 °F 40% 29.88 in 10.0 mi West 10.4 mph - N/A   Overcast
5:15 PM 65.7 °F 42.6 °F 43% 29.89 in 10.0 mi West 10.4 mph - N/A   Overcast
5:39 PM 66.6 °F 43.5 °F 43% 29.89 in 10.0 mi West 9.2 mph - N/A   Overcast
5:57 PM 66.2 °F 43.3 °F 44% 29.89 in 10.0 mi West 6.9 mph - N/A   Overcast
6:15 PM 66.4 °F 44.4 °F 45% 29.89 in 10.0 mi West 5.8 mph - N/A   Overcast
6:16 PM 66.4 °F 44.6 °F 45% 29.89 in 10.0 mi West 4.6 mph - N/A   Overcast
6:35 PM 65.8 °F 44.4 °F 46% 29.89 in 10.0 mi West 4.6 mph - N/A   Overcast
6:36 PM 65.8 °F 44.6 °F 46% 29.89 in 10.0 mi West 4.6 mph - N/A   Overcast
6:55 PM 65.7 °F 45.1 °F 47% 29.89 in 10.0 mi West 3.5 mph - N/A   Overcast
7:18 PM 64.9 °F 46.6 °F 51% 29.89 in 10.0 mi WSW 3.5 mph - N/A   Overcast
7:36 PM 64.4 °F 46.9 °F 53% 29.89 in 10.0 mi Calm Calm - N/A   Overcast
7:55 PM 64.2 °F 47.5 °F 55% 29.90 in 10.0 mi Calm Calm - N/A   Overcast
8:15 PM 63.5 °F 47.8 °F 57% 29.90 in 10.0 mi WSW 3.5 mph - N/A   Overcast
8:39 PM 63.0 °F 47.8 °F 58% 29.90 in 10.0 mi WSW 3.5 mph - N/A   Overcast
8:57 PM 61.3 °F 49.6 °F 65% 29.91 in 10.0 mi Calm Calm - N/A   Overcast
9:15 PM 60.4 °F 49.1 °F 66% 29.91 in 10.0 mi SSW 3.5 mph - N/A   Mostly Cloudy
9:35 PM 59.2 °F 50.0 °F 72% 29.92 in 10.0 mi SSW 3.5 mph - N/A   Mostly Cloudy
9:55 PM 58.6 °F 52.7 °F 81% 29.92 in 10.0 mi Calm Calm - N/A   Overcast
10:00 PM 59.0 °F 53.4 °F 82% 29.92 in 10.0 mi Calm Calm - N/A   Overcast
10:18 PM 59.4 °F 55.2 °F 86% 29.92 in 10.0 mi Calm Calm - N/A   Overcast
10:36 PM 59.5 °F 55.6 °F 87% 29.93 in 10.0 mi Calm Calm - N/A   Overcast
10:55 PM 60.1 °F 54.7 °F 82% 29.93 in 10.0 mi Calm Calm - N/A   Overcast
11:15 PM 60.1 °F 55.6 °F 85% 29.93 in 10.0 mi Calm Calm - N/A   Overcast
11:16 PM 60.1 °F 55.6 °F 85% 29.93 in 10.0 mi Calm Calm - N/A   Overcast
11:39 PM 59.9 °F 54.3 °F 82% 29.94 in 10.0 mi Calm Calm - N/A   Overcast
11:57 PM 59.4 °F 54.1 °F 83% 29.94 in 10.0 mi Calm Calm - N/A   Mostly Cloudy